星链-33670 (STARLINK-33670)

导读

STARLINK-33670是美国太空探索技术公司(SpaceX)于2025年3月31日发射的星链低轨通信卫星,属于Starlink星座组网的组成部分。星链卫星采用平板设计,搭载Ku/Ka波段通信载荷,以氪霍尔推进器实现轨道机动,可自主避撞。该卫星旨在为全球尤其是偏远地区提供高速宽带互联网服务,设计寿命约5至7年,退役后将主动离轨坠入大气层销毁。

Basic Information
目录编号:
63413
目录名称:
STARLINK-33670
国际标识:
2025-065Q
轨道中心:
EARTH
卫星名称:
星链-33670
卫星全名:
星链-33670 (STARLINK-33670)
卫星状态:
在轨 (已飞行529 天)
发射日期:
2025-03-31 UTC
国别 :
美国 (US)
星等 :
--
This satellite is enrolled in the Space Conjunction Data Service (SCDS) and the current flight risk assessment level is: No High Risk
Orbit Information
数据来源 国际轨道数据
星历时间: 2026-09-10T18:07:34+0800
22小时前
查看轨道信息
半长轴: 6861.197km
偏心率: 0.0000655
轨道倾角: 43.004°
近地点辐角 265.873°
升交点赤经 143.661°
平近点角 94.205°
近地点: 482.61km
远地点: 483.51km
周期: 94.267分钟
每日圈数: 15.275765
Detailed Information
固有亮度:
5
最大亮度:
2.5
卫星平台:
Starlink V1.0
覆盖范围:
全球
运营商:
太空探索技术公司
运营商所在国:
美国
制造商(研发单位):
太空探索技术公司
制造商所在国:
美国
使用方式:
暂无
Satellite Introduction
Starlink 计划是 SpaceX 推出的全球卫星互联网项目,通过发射低轨道卫星,为全球尤其是偏远地区提供高速、低延迟的互联网服务。自 2019 年起,Starlink 已部署数千颗卫星,旨在缩小全球数字鸿沟,推动互联网普及。该项目还为军事、航空等行业提供通信支持,带来广泛经济效益。
2D Orbit Map
3D Orbit Map
Orbit Altitude Analysis Chart
Orbit Inclination Analysis Chart
Orbit Comprehensive Analysis Chart
View Comprehensive Chart
Conjunction Data List
Event ID Objects TCA Miss Dist (km) Collision Risk Probability Collision Risk Index (CRI) Action
CDM_260913-033005-722606-341321
2026-09-13T
03:30:35+0000
0.626 km
远距离
6.806105E-5 中风险 0.72
CDM_260913-091105-614106-341321
2026-09-13T
09:11:47+0000
0.776 km
远距离
2.37618E-5 中风险 0.63
CDM_260912-024504-431106-341322
OBJECT B (44311)
2026-09-12T
02:45:17+0000
1.247 km
极远距离
9.029302E-6 低风险 0.54
CDM_260913-091505-642306-341321
2026-09-13T
09:15:16+0000
2.032 km
极远距离
1.598972E-6 低风险 0.39
CDM_260913-103405-722606-341321
2026-09-13T
10:34:16+0000
2.299 km
极远距离
1.253746E-6 低风险 0.37
CDM_260913-112405-600506-341321
2026-09-13T
11:24:52+0000
2.294 km
极远距离
9.410815E-7 极低风险 0.34
CDM_260913-090005-722606-341321
2026-09-13T
09:00:07+0000
2.775 km
极远距离
9.206828E-7 极低风险 0.34
CDM_260913-103306-341306-393921
2026-09-13T
10:33:10+0000
2.944 km
极远距离
7.453393E-7 极低风险 0.32
Miss Distance Evolution Trend with All Objects
Collision Probability Evolution Trend with All Objects